User: anonymous   Login
Location: Unspecified
(0.0000°N, 0.0000°E)
Time: 04:35:35
(UTC+00:00)
Language:

TBA - TO BE ASSIGNED - Orbit

View from above orbital plane
View from above orbital plane
View from above satellite
View from above satellite

Ground track
Ground track

The orbit is defined by the following mean orbital elements,

1 68090U          26145.58335647 +.00000000 +00000-0 +14031-2 0 00006
2 68090  53.1588 180.6880 0001380  83.1097 153.8035 15.34368465    06
Epoch (UTC): 25 May 2026 14:00:01
Eccentricity: 0.0001380
inclination: 53.1588°
perigee height: 462 km
apogee height: 464 km
right ascension of ascending node: 180.6880°
argument of perigee: 83.1097°
revolutions per day: 15.34368465
mean anomaly at epoch: 153.8035°

The dashed part of the orbit path shows where the satellite is in the earth's shadow,  

DLR